Location: Newark
(31.5350°N, 35.0986°E)
Time: 04:17:32
(UTC+00:00)

Vanguard 1 - Pass Details

Date: 27 September 2019
Orbit: 653 x 3830 km, 34.2° (Epoch: 22 October)

Event Time Altitude Azimuth Distance (km) Brightness Sun altitude
Rises 22:03:40 0° 247° (WSW) 6,793 - -59.3°
Reaches altitude 10° 22:07:36 10° 247° (WSW) 6,081 - -59.0°
Maximum altitude 22:29:16 87° 161° (SSE) 3,832 - -57.2°
Exits shadow 22:33:54 69° 80° (E) 3,980 12.8 -56.7°
Drops below altitude 10° 22:51:37 10° 76° (ENE) 6,238 14.4 -54.7°
Sets 22:55:44 0° 76° (ENE) 6,965 14.8 -54.1°
